Saint Bonnet de Bellac- Haute Vienne - France
Donnes mto: dimanche, 19/08/2012
Date Horaire Temp. E. Hum. E. P.atmo. Pluie Vent Direction Direction Ensoleilleme Solaire P. de rose Temp au vent Rafales
19/08/2012 00:00 24,8 C 57 % 1016,0 hPa 0,0 mm 0,0 km/h (0 Bft) O-SO 247 0 min 0 W/m 15,7 C 24,8 C 0,0 km/h (0 Bft)
19/08/2012 00:10 24,6 C 58 % 1016,1 hPa 0,0 mm 0,0 km/h (0 Bft) O-SO 247 0 min 0 W/m 15,8 C 24,6 C 0,0 km/h (0 Bft)
19/08/2012 00:20 24,4 C 60 % 1016,0 hPa 0,0 mm 0,0 km/h (0 Bft) O-SO 247 0 min 0 W/m 16,1 C 24,4 C 0,0 km/h (0 Bft)
19/08/2012 00:30 24,3 C 61 % 1016,0 hPa 0,0 mm 1,4 km/h (1 Bft) E 90 0 min 0 W/m 16,3 C 24,3 C 4,0 km/h (1 Bft)
19/08/2012 00:40 24,4 C 62 % 1016,0 hPa 0,0 mm 1,1 km/h (1 Bft) E-SE 112 0 min 0 W/m 16,6 C 24,4 C 4,0 km/h (1 Bft)
19/08/2012 00:50 24,4 C 63 % 1016,1 hPa 0,0 mm 1,4 km/h (1 Bft) E-SE 112 0 min 0 W/m 16,9 C 24,4 C 4,0 km/h (1 Bft)
19/08/2012 01:00 24,3 C 63 % 1016,0 hPa 0,0 mm 1,1 km/h (1 Bft) E-SE 112 0 min 0 W/m 16,8 C 24,3 C 4,0 km/h (1 Bft)
19/08/2012 01:10 24,2 C 63 % 1016,1 hPa 0,0 mm 1,1 km/h (1 Bft) E-SE 112 0 min 0 W/m 16,7 C 24,2 C 3,2 km/h (1 Bft)
19/08/2012 01:20 23,8 C 66 % 1016,1 hPa 0,0 mm 2,5 km/h (1 Bft) E 90 0 min 0 W/m 17,1 C 23,8 C 4,3 km/h (1 Bft)
19/08/2012 01:30 23,5 C 66 % 1016,2 hPa 0,0 mm 1,1 km/h (1 Bft) E-SE 112 0 min 0 W/m 16,8 C 23,5 C 4,3 km/h (1 Bft)
19/08/2012 01:40 23,3 C 67 % 1016,3 hPa 0,0 mm 1,4 km/h (1 Bft) E-SE 112 0 min 0 W/m 16,8 C 23,3 C 3,6 km/h (1 Bft)
19/08/2012 01:50 23,2 C 67 % 1016,3 hPa 0,0 mm 0,4 km/h (0 Bft) SE 135 0 min 0 W/m 16,7 C 23,2 C 3,2 km/h (1 Bft)
19/08/2012 02:00 23,1 C 67 % 1016,1 hPa 0,0 mm 0,0 km/h (0 Bft) SE 135 0 min 0 W/m 16,6 C 23,1 C 0,0 km/h (0 Bft)
19/08/2012 02:10 22,8 C 67 % 1015,9 hPa 0,0 mm 0,4 km/h (0 Bft) E-SE 112 0 min 0 W/m 16,3 C 22,8 C 4,0 km/h (1 Bft)
19/08/2012 02:20 22,6 C 70 % 1016,0 hPa 0,0 mm 0,0 km/h (0 Bft) E-SE 112 0 min 0 W/m 16,8 C 22,6 C 0,0 km/h (0 Bft)
19/08/2012 02:30 22,4 C 70 % 1016,0 hPa 0,0 mm 1,8 km/h (1 Bft) E-SE 112 0 min 0 W/m 16,7 C 22,4 C 3,6 km/h (1 Bft)
19/08/2012 02:40 22,3 C 71 % 1015,9 hPa 0,0 mm 3,6 km/h (1 Bft) SE 135 0 min 0 W/m 16,8 C 22,3 C 6,8 km/h (2 Bft)
19/08/2012 02:50 22,5 C 70 % 1016,0 hPa 0,0 mm 2,2 km/h (1 Bft) E-SE 112 0 min 0 W/m 16,7 C 22,5 C 4,3 km/h (1 Bft)
19/08/2012 03:02 22,6 C 70 % 1015,9 hPa 0,0 mm 0,0 km/h (0 Bft) E-SE 112 0 min 0 W/m 16,8 C 22,6 C 0,0 km/h (0 Bft)
19/08/2012 03:10 22,6 C 70 % 1015,9 hPa 0,0 mm 1,8 km/h (1 Bft) E-SE 112 0 min 0 W/m 16,8 C 22,6 C 4,3 km/h (1 Bft)
19/08/2012 03:20 22,6 C 70 % 1016,0 hPa 0,0 mm 0,0 km/h (0 Bft) E-SE 112 0 min 0 W/m 16,8 C 22,6 C 0,0 km/h (0 Bft)
19/08/2012 03:30 22,3 C 69 % 1016,0 hPa 0,0 mm 0,4 km/h (0 Bft) E-SE 112 0 min 0 W/m 16,3 C 22,3 C 3,6 km/h (1 Bft)
19/08/2012 03:40 22,2 C 71 % 1015,9 hPa 0,0 mm 1,4 km/h (1 Bft) E 90 0 min 0 W/m 16,7 C 22,2 C 4,0 km/h (1 Bft)
19/08/2012 03:50 22,1 C 71 % 1015,7 hPa 0,0 mm 0,0 km/h (0 Bft) E 90 0 min 0 W/m 16,6 C 22,1 C 2,9 km/h (1 Bft)
19/08/2012 04:00 22,0 C 70 % 1015,7 hPa 0,0 mm 0,4 km/h (0 Bft) E 90 0 min 0 W/m 16,3 C 22,0 C 0,4 km/h (0 Bft)
19/08/2012 04:10 22,0 C 71 % 1015,7 hPa 0,0 mm 1,4 km/h (1 Bft) E 90 0 min 0 W/m 16,5 C 22,0 C 4,3 km/h (1 Bft)
19/08/2012 04:20 22,1 C 70 % 1015,5 hPa 0,0 mm 0,0 km/h (0 Bft) E-NE 67 0 min 0 W/m 16,4 C 22,1 C 0,0 km/h (0 Bft)
19/08/2012 04:30 22,0 C 71 % 1015,4 hPa 0,0 mm 1,8 km/h (1 Bft) NE 45 0 min 0 W/m 16,5 C 22,0 C 7,2 km/h (2 Bft)
19/08/2012 04:40 21,9 C 71 % 1015,5 hPa 0,0 mm 0,0 km/h (0 Bft) E-SE 112 0 min 0 W/m 16,4 C 21,9 C 0,0 km/h (0 Bft)
19/08/2012 04:50 21,6 C 71 % 1015,5 hPa 0,0 mm 0,0 km/h (0 Bft) E-SE 112 0 min 0 W/m 16,1 C 21,6 C 0,0 km/h (0 Bft)
19/08/2012 05:00 21,3 C 72 % 1015,5 hPa 0,0 mm 0,0 km/h (0 Bft) E-SE 112 0 min 0 W/m 16,0 C 21,3 C 0,0 km/h (0 Bft)
19/08/2012 05:10 21,1 C 72 % 1015,5 hPa 0,0 mm 0,0 km/h (0 Bft) E 90 0 min 0 W/m 15,8 C 21,1 C 0,0 km/h (0 Bft)
19/08/2012 05:20 20,8 C 73 % 1015,8 hPa 0,0 mm 0,0 km/h (0 Bft) E 90 0 min 0 W/m 15,8 C 20,8 C 0,0 km/h (0 Bft)
19/08/2012 05:30 20,3 C 74 % 1015,8 hPa 0,0 mm 0,0 km/h (0 Bft) E 90 0 min 0 W/m 15,5 C 20,3 C 0,0 km/h (0 Bft)
19/08/2012 05:40 20,1 C 75 % 1015,8 hPa 0,0 mm 0,0 km/h (0 Bft) E 90 0 min 0 W/m 15,5 C 20,1 C 0,0 km/h (0 Bft)
19/08/2012 05:50 19,9 C 74 % 1015,9 hPa 0,0 mm 0,0 km/h (0 Bft) E 90 0 min 0 W/m 15,1 C 19,9 C 0,0 km/h (0 Bft)
19/08/2012 06:00 19,8 C 75 % 1015,8 hPa 0,0 mm 0,4 km/h (0 Bft) E 90 0 min 0 W/m 15,2 C 19,8 C 2,9 km/h (1 Bft)
19/08/2012 06:10 19,8 C 76 % 1015,7 hPa 0,0 mm 1,1 km/h (1 Bft) E-NE 67 0 min 0 W/m 15,4 C 19,8 C 4,0 km/h (1 Bft)
19/08/2012 06:20 19,8 C 76 % 1015,7 hPa 0,0 mm 0,0 km/h (0 Bft) E-SE 112 0 min 0 W/m 15,4 C 19,8 C 0,0 km/h (0 Bft)
19/08/2012 06:30 19,8 C 76 % 1015,6 hPa 0,0 mm 0,0 km/h (0 Bft) E-SE 112 0 min 0 W/m 15,4 C 19,8 C 0,0 km/h (0 Bft)
19/08/2012 06:40 19,7 C 76 % 1015,6 hPa 0,0 mm 0,0 km/h (0 Bft) E 90 0 min 0 W/m 15,3 C 19,7 C 0,0 km/h (0 Bft)
19/08/2012 06:50 19,6 C 76 % 1015,6 hPa 0,0 mm 1,8 km/h (1 Bft) E 90 0 min 0 W/m 15,2 C 19,6 C 4,3 km/h (1 Bft)
19/08/2012 07:00 19,9 C 75 % 1015,6 hPa 0,0 mm 4,3 km/h (1 Bft) E-NE 67 0 min 0 W/m 15,3 C 19,9 C 4,3 km/h (1 Bft)
19/08/2012 07:10 20,3 C 73 % 1015,6 hPa 0,0 mm 0,7 km/h (0 Bft) SE 135 0 min 0 W/m 15,3 C 20,3 C 3,2 km/h (1 Bft)
19/08/2012 07:20 20,4 C 72 % 1015,5 hPa 0,0 mm 1,4 km/h (1 Bft) E 90 0 min 0 W/m 15,2 C 20,4 C 4,0 km/h (1 Bft)
19/08/2012 07:30 20,5 C 72 % 1015,4 hPa 0,0 mm 7,2 km/h (2 Bft) E 90 0 min 0 W/m 15,3 C 20,5 C 7,2 km/h (2 Bft)
19/08/2012 07:40 20,8 C 71 % 1015,4 hPa 0,0 mm 2,9 km/h (1 Bft) E-SE 112 0 min 0 W/m 15,3 C 20,8 C 6,1 km/h (2 Bft)
19/08/2012 07:50 21,1 C 70 % 1015,2 hPa 0,0 mm 7,2 km/h (2 Bft) E 90 0 min 0 W/m 15,4 C 21,1 C 12,6 km/h (3 Bft)
19/08/2012 08:00 21,6 C 66 % 1015,2 hPa 0,0 mm 5,0 km/h (1 Bft) E-SE 112 0 min 0 W/m 15,0 C 21,6 C 10,8 km/h (2 Bft)
19/08/2012 08:10 22,1 C 65 % 1015,3 hPa 0,0 mm 1,4 km/h (1 Bft) SE 135 0 min 0 W/m 15,2 C 22,1 C 1,8 km/h (1 Bft)
19/08/2012 08:20 22,3 C 65 % 1015,4 hPa 0,0 mm 1,1 km/h (1 Bft) E-SE 112 0 min 0 W/m 15,4 C 22,3 C 3,6 km/h (1 Bft)
19/08/2012 08:30 22,7 C 64 % 1015,5 hPa 0,0 mm 1,4 km/h (1 Bft) E 90 0 min 0 W/m 15,5 C 22,7 C 3,2 km/h (1 Bft)
19/08/2012 08:40 23,1 C 63 % 1015,7 hPa 0,0 mm 0,0 km/h (0 Bft) E-SE 112 0 min 0 W/m 15,7 C 23,1 C 0,0 km/h (0 Bft)
19/08/2012 08:50 23,7 C 62 % 1015,8 hPa 0,0 mm 0,0 km/h (0 Bft) E-SE 112 0 min 0 W/m 16,0 C 23,7 C 0,0 km/h (0 Bft)
19/08/2012 09:00 24,6 C 59 % 1016,0 hPa 0,0 mm 0,0 km/h (0 Bft) S-SE 157 0 min 0 W/m 16,0 C 24,6 C 0,0 km/h (0 Bft)
19/08/2012 09:10 25,4 C 56 % 1016,1 hPa 0,0 mm 2,5 km/h (1 Bft) S-SE 157 0 min 0 W/m 16,0 C 25,4 C 4,0 km/h (1 Bft)
19/08/2012 09:20 26,3 C 51 % 1016,1 hPa 0,0 mm 4,3 km/h (1 Bft) S 180 0 min 0 W/m 15,3 C 26,3 C 4,3 km/h (1 Bft)
19/08/2012 09:30 27,3 C 48 % 1016,0 hPa 0,0 mm 8,3 km/h (2 Bft) SE 135 0 min 0 W/m 15,3 C 27,3 C 10,8 km/h (2 Bft)
19/08/2012 09:40 28,3 C 45 % 1016,1 hPa 0,0 mm 5,4 km/h (2 Bft) S-SE 157 0 min 0 W/m 15,2 C 28,3 C 5,4 km/h (2 Bft)
19/08/2012 09:50 29,1 C 41 % 1016,3 hPa 0,0 mm 3,6 km/h (1 Bft) S-SO 202 0 min 0 W/m 14,5 C 29,1 C 7,2 km/h (2 Bft)
19/08/2012 10:00 29,8 C 39 % 1016,5 hPa 0,0 mm 7,9 km/h (2 Bft) S-SE 157 0 min 0 W/m 14,3 C 29,8 C 9,4 km/h (2 Bft)
19/08/2012 10:10 30,2 C 41 % 1016,4 hPa 0,0 mm 13,7 km/h (3 Bft) SO 225 0 min 0 W/m 15,5 C 30,2 C 20,9 km/h (4 Bft)
19/08/2012 10:20 30,6 C 39 % 1016,5 hPa 0,0 mm 7,6 km/h (2 Bft) SE 135 0 min 0 W/m 15,0 C 30,6 C 11,5 km/h (2 Bft)
19/08/2012 10:30 31,0 C 38 % 1016,6 hPa 0,0 mm 5,4 km/h (2 Bft) S-SO 202 0 min 0 W/m 15,0 C 31,0 C 10,8 km/h (2 Bft)
19/08/2012 10:40 31,4 C 37 % 1016,7 hPa 0,0 mm 6,8 km/h (2 Bft) S 180 0 min 0 W/m 14,9 C 31,4 C 10,8 km/h (2 Bft)
19/08/2012 10:50 31,6 C 37 % 1016,8 hPa 0,0 mm 7,9 km/h (2 Bft) SO 225 0 min 0 W/m 15,1 C 31,6 C 14,0 km/h (3 Bft)
19/08/2012 11:00 31,8 C 37 % 1016,9 hPa 0,0 mm 9,4 km/h (2 Bft) S-SO 202 0 min 0 W/m 15,3 C 31,8 C 16,9 km/h (3 Bft)
19/08/2012 11:10 31,8 C 37 % 1017,0 hPa 0,0 mm 8,6 km/h (2 Bft) S-SO 202 0 min 0 W/m 15,3 C 31,8 C 10,4 km/h (2 Bft)
19/08/2012 11:20 32,3 C 35 % 1017,0 hPa 0,0 mm 12,6 km/h (3 Bft) S-SO 202 0 min 0 W/m 14,9 C 32,3 C 19,1 km/h (3 Bft)
19/08/2012 11:30 32,6 C 35 % 1016,9 hPa 0,0 mm 10,4 km/h (2 Bft) S-SO 202 0 min 0 W/m 15,1 C 32,6 C 16,9 km/h (3 Bft)
19/08/2012 11:40 33,1 C 35 % 1016,9 hPa 0,0 mm 6,8 km/h (2 Bft) S-SO 202 0 min 0 W/m 15,6 C 33,1 C 7,2 km/h (2 Bft)
19/08/2012 11:50 33,4 C 34 % 1016,9 hPa 0,0 mm 9,7 km/h (2 Bft) SO 225 0 min 0 W/m 15,4 C 33,4 C 17,6 km/h (3 Bft)
19/08/2012 12:00 33,6 C 34 % 1016,9 hPa 0,0 mm 4,7 km/h (1 Bft) S 180 0 min 0 W/m 15,5 C 33,6 C 8,6 km/h (2 Bft)
19/08/2012 12:10 33,8 C 32 % 1016,9 hPa 0,0 mm 9,4 km/h (2 Bft) S-SO 202 0 min 0 W/m 14,8 C 33,8 C 16,2 km/h (3 Bft)
19/08/2012 12:20 34,0 C 33 % 1016,9 hPa 0,0 mm 4,7 km/h (1 Bft) S-SO 202 0 min 0 W/m 15,4 C 34,0 C 10,1 km/h (2 Bft)
19/08/2012 12:30 34,3 C 33 % 1016,9 hPa 0,0 mm 4,7 km/h (1 Bft) SO 225 0 min 0 W/m 15,7 C 34,3 C 9,7 km/h (2 Bft)
19/08/2012 12:40 34,4 C 32 % 1016,9 hPa 0,0 mm 10,4 km/h (2 Bft) S-SO 202 0 min 0 W/m 15,3 C 34,4 C 11,2 km/h (2 Bft)
19/08/2012 12:50 34,8 C 33 % 1016,8 hPa 0,0 mm 5,0 km/h (1 Bft) S 180 0 min 0 W/m 16,1 C 34,8 C 7,9 km/h (2 Bft)
19/08/2012 13:00 34,9 C 32 % 1016,8 hPa 0,0 mm 8,3 km/h (2 Bft) S-SO 202 0 min 0 W/m 15,7 C 34,9 C 12,6 km/h (3 Bft)
19/08/2012 13:10 35,2 C 32 % 1016,8 hPa 0,0 mm 6,1 km/h (2 Bft) S-SO 202 0 min 0 W/m 16,0 C 35,2 C 10,8 km/h (2 Bft)
19/08/2012 13:20 35,3 C 32 % 1016,7 hPa 0,0 mm 7,9 km/h (2 Bft) SO 225 0 min 0 W/m 16,1 C 35,3 C 9,0 km/h (2 Bft)
19/08/2012 13:30 35,3 C 32 % 1016,9 hPa 0,0 mm 6,1 km/h (2 Bft) S 180 0 min 0 W/m 16,1 C 35,3 C 11,9 km/h (2 Bft)
19/08/2012 13:40 35,3 C 32 % 1016,9 hPa 0,0 mm 6,8 km/h (2 Bft) S-SO 202 0 min 0 W/m 16,1 C 35,3 C 8,3 km/h (2 Bft)
19/08/2012 13:50 35,3 C 32 % 1016,8 hPa 0,0 mm 5,8 km/h (2 Bft) S-SO 202 0 min 0 W/m 16,1 C 35,3 C 9,4 km/h (2 Bft)
19/08/2012 14:00 35,5 C 31 % 1016,8 hPa 0,0 mm 11,5 km/h (2 Bft) SO 225 0 min 0 W/m 15,7 C 35,5 C 14,0 km/h (3 Bft)
19/08/2012 14:10 35,8 C 31 % 1016,8 hPa 0,0 mm 11,9 km/h (2 Bft) SO 225 0 min 0 W/m 16,0 C 35,8 C 19,8 km/h (3 Bft)
19/08/2012 14:20 35,8 C 31 % 1016,8 hPa 0,0 mm 10,8 km/h (2 Bft) S-SO 202 0 min 0 W/m 16,0 C 35,8 C 14,8 km/h (3 Bft)
19/08/2012 14:30 35,8 C 31 % 1016,9 hPa 0,0 mm 6,5 km/h (2 Bft) O-SO 247 0 min 0 W/m 16,0 C 35,8 C 11,2 km/h (2 Bft)
19/08/2012 14:40 35,9 C 31 % 1016,9 hPa 0,0 mm 12,6 km/h (3 Bft) S-SO 202 0 min 0 W/m 16,1 C 35,9 C 16,6 km/h (3 Bft)
19/08/2012 14:50 36,1 C 31 % 1017,0 hPa 0,0 mm 8,3 km/h (2 Bft) O-SO 247 0 min 0 W/m 16,2 C 36,1 C 9,7 km/h (2 Bft)
19/08/2012 15:00 36,3 C 31 % 1016,9 hPa 0,0 mm 7,6 km/h (2 Bft) S 180 0 min 0 W/m 16,4 C 36,3 C 12,2 km/h (2 Bft)
19/08/2012 15:10 36,5 C 31 % 1016,9 hPa 0,0 mm 8,3 km/h (2 Bft) O-SO 247 0 min 0 W/m 16,6 C 36,5 C 14,0 km/h (3 Bft)
19/08/2012 15:20 36,6 C 31 % 1017,0 hPa 0,0 mm 8,3 km/h (2 Bft) O-SO 247 0 min 0 W/m 16,7 C 36,6 C 11,9 km/h (2 Bft)
19/08/2012 15:30 36,6 C 30 % 1017,0 hPa 0,0 mm 6,8 km/h (2 Bft) SO 225 0 min 0 W/m 16,2 C 36,6 C 13,3 km/h (3 Bft)
19/08/2012 15:40 36,4 C 31 % 1017,1 hPa 0,0 mm 6,5 km/h (2 Bft) S-SO 202 0 min 0 W/m 16,5 C 36,4 C 14,0 km/h (3 Bft)
19/08/2012 15:50 36,6 C 31 % 1017,1 hPa 0,0 mm 5,4 km/h (2 Bft) S-SO 202 0 min 0 W/m 16,7 C 36,6 C 10,1 km/h (2 Bft)
19/08/2012 16:00 36,6 C 31 % 1017,1 hPa 0,0 mm 5,8 km/h (2 Bft) SO 225 0 min 0 W/m 16,7 C 36,6 C 9,4 km/h (2 Bft)
19/08/2012 16:10 36,3 C 32 % 1017,1 hPa 0,0 mm 5,4 km/h (2 Bft) NO 315 0 min 0 W/m 16,9 C 36,3 C 20,9 km/h (4 Bft)
19/08/2012 16:20 36,4 C 33 % 1017,0 hPa 0,0 mm 1,8 km/h (1 Bft) O-SO 247 0 min 0 W/m 17,5 C 36,4 C 4,0 km/h (1 Bft)
19/08/2012 16:30 36,2 C 34 % 1017,1 hPa 0,0 mm 1,8 km/h (1 Bft) O-NO 292 0 min 0 W/m 17,8 C 36,2 C 3,2 km/h (1 Bft)
19/08/2012 16:40 35,7 C 34 % 1017,1 hPa 0,0 mm 5,4 km/h (2 Bft) S-SO 202 0 min 0 W/m 17,4 C 35,7 C 8,3 km/h (2 Bft)
19/08/2012 16:50 35,1 C 35 % 1017,2 hPa 0,0 mm 2,5 km/h (1 Bft) S-SO 202 0 min 0 W/m 17,3 C 35,1 C 9,0 km/h (2 Bft)
19/08/2012 17:00 34,4 C 36 % 1017,4 hPa 0,0 mm 1,8 km/h (1 Bft) O-SO 247 0 min 0 W/m 17,1 C 34,4 C 1,8 km/h (1 Bft)
19/08/2012 17:10 33,8 C 38 % 1017,4 hPa 0,0 mm 5,0 km/h (1 Bft) SO 225 0 min 0 W/m 17,5 C 33,8 C 7,9 km/h (2 Bft)
19/08/2012 17:20 33,5 C 40 % 1017,3 hPa 0,0 mm 0,0 km/h (0 Bft) S-SO 202 0 min 0 W/m 18,0 C 33,5 C 0,0 km/h (0 Bft)
19/08/2012 17:30 33,4 C 40 % 1017,3 hPa 0,0 mm 2,2 km/h (1 Bft) SO 225 0 min 0 W/m 17,9 C 33,4 C 4,0 km/h (1 Bft)
19/08/2012 17:40 33,0 C 41 % 1017,4 hPa 0,0 mm 0,4 km/h (0 Bft) O-SO 247 0 min 0 W/m 18,0 C 33,0 C 0,4 km/h (0 Bft)
19/08/2012 17:50 32,8 C 42 % 1017,2 hPa 0,0 mm 0,0 km/h (0 Bft) S-SO 202 0 min 0 W/m 18,2 C 32,8 C 0,0 km/h (0 Bft)
19/08/2012 18:00 33,0 C 42 % 1016,9 hPa 0,0 mm 1,8 km/h (1 Bft) SE 135 0 min 0 W/m 18,3 C 33,0 C 4,0 km/h (1 Bft)
19/08/2012 18:10 33,6 C 42 % 1017,2 hPa 0,0 mm 3,6 km/h (1 Bft) SO 225 0 min 0 W/m 18,9 C 33,6 C 6,5 km/h (2 Bft)
19/08/2012 18:20 34,2 C 41 % 1017,0 hPa 0,0 mm 0,4 km/h (0 Bft) SO 225 0 min 0 W/m 19,0 C 34,2 C 4,0 km/h (1 Bft)
19/08/2012 18:30 34,4 C 40 % 1017,0 hPa 0,0 mm 3,2 km/h (1 Bft) S-SO 202 0 min 0 W/m 18,8 C 34,4 C 4,0 km/h (1 Bft)
19/08/2012 18:40 34,5 C 39 % 1017,0 hPa 0,0 mm 1,4 km/h (1 Bft) SO 225 0 min 0 W/m 18,5 C 34,5 C 4,0 km/h (1 Bft)
19/08/2012 18:50 34,4 C 39 % 1016,9 hPa 0,0 mm 0,0 km/h (0 Bft) O-SO 247 0 min 0 W/m 18,4 C 34,4 C 0,0 km/h (0 Bft)
19/08/2012 19:00 34,5 C 39 % 1016,8 hPa 0,0 mm 0,0 km/h (0 Bft) O-SO 247 0 min 0 W/m 18,5 C 34,5 C 0,0 km/h (0 Bft)
19/08/2012 19:10 34,5 C 39 % 1016,7 hPa 0,0 mm 0,0 km/h (0 Bft) O-SO 247 0 min 0 W/m 18,5 C 34,5 C 0,0 km/h (0 Bft)
19/08/2012 19:20 34,3 C 40 % 1016,8 hPa 0,0 mm 0,7 km/h (0 Bft) O-SO 247 0 min 0 W/m 18,7 C 34,3 C 4,0 km/h (1 Bft)
19/08/2012 19:30 34,1 C 40 % 1016,8 hPa 0,0 mm 1,1 km/h (1 Bft) S-SO 202 0 min 0 W/m 18,5 C 34,1 C 4,0 km/h (1 Bft)
19/08/2012 19:40 33,8 C 40 % 1016,9 hPa 0,0 mm 0,0 km/h (0 Bft) O-SO 247 0 min 0 W/m 18,3 C 33,8 C 0,0 km/h (0 Bft)
19/08/2012 19:50 33,5 C 41 % 1017,0 hPa 0,0 mm 0,0 km/h (0 Bft) O-SO 247 0 min 0 W/m 18,4 C 33,5 C 0,0 km/h (0 Bft)
19/08/2012 20:00 33,1 C 42 % 1017,2 hPa 0,0 mm 0,0 km/h (0 Bft) O 270 0 min 0 W/m 18,4 C 33,1 C 0,0 km/h (0 Bft)
19/08/2012 20:10 32,6 C 43 % 1017,3 hPa 0,0 mm 0,0 km/h (0 Bft) O 270 0 min 0 W/m 18,4 C 32,6 C 0,0 km/h (0 Bft)
19/08/2012 20:20 31,9 C 47 % 1017,5 hPa 0,0 mm 2,5 km/h (1 Bft) O 270 0 min 0 W/m 19,2 C 31,9 C 3,2 km/h (1 Bft)
19/08/2012 20:30 31,1 C 51 % 1017,6 hPa 0,0 mm 0,0 km/h (0 Bft) O-SO 247 0 min 0 W/m 19,7 C 31,1 C 0,0 km/h (0 Bft)
19/08/2012 20:40 30,2 C 53 % 1017,7 hPa 0,0 mm 0,4 km/h (0 Bft) O 270 0 min 0 W/m 19,5 C 30,2 C 4,0 km/h (1 Bft)
19/08/2012 20:50 29,4 C 55 % 1017,9 hPa 0,0 mm 0,0 km/h (0 Bft) N-NO 337 0 min 0 W/m 19,4 C 29,4 C 0,0 km/h (0 Bft)
19/08/2012 21:00 28,8 C 56 % 1018,0 hPa 0,0 mm 0,0 km/h (0 Bft) NO 315 0 min 0 W/m 19,1 C 28,8 C 0,0 km/h (0 Bft)
19/08/2012 21:10 28,3 C 57 % 1018,2 hPa 0,0 mm 0,0 km/h (0 Bft) O-NO 292 0 min 0 W/m 18,9 C 28,3 C 0,0 km/h (0 Bft)
19/08/2012 21:20 27,8 C 59 % 1018,3 hPa 0,0 mm 0,0 km/h (0 Bft) O-NO 292 0 min 0 W/m 19,0 C 27,8 C 0,0 km/h (0 Bft)
19/08/2012 21:30 27,4 C 61 % 1018,6 hPa 0,0 mm 0,0 km/h (0 Bft) O-NO 292 0 min 0 W/m 19,2 C 27,4 C 0,0 km/h (0 Bft)
19/08/2012 21:40 26,9 C 61 % 1018,7 hPa 0,0 mm 0,0 km/h (0 Bft) O 270 0 min 0 W/m 18,7 C 26,9 C 0,0 km/h (0 Bft)
19/08/2012 21:50 26,5 C 62 % 1018,7 hPa 0,0 mm 0,0 km/h (0 Bft) O 270 0 min 0 W/m 18,6 C 26,5 C 0,0 km/h (0 Bft)
19/08/2012 22:00 26,2 C 62 % 1019,0 hPa 0,0 mm 0,0 km/h (0 Bft) O 270 0 min 0 W/m 18,3 C 26,2 C 0,0 km/h (0 Bft)
19/08/2012 22:10 25,9 C 63 % 1019,1 hPa 0,0 mm 0,0 km/h (0 Bft) O 270 0 min 0 W/m 18,3 C 25,9 C 0,0 km/h (0 Bft)
19/08/2012 22:20 25,6 C 64 % 1019,3 hPa 0,0 mm 0,0 km/h (0 Bft) O-SO 247 0 min 0 W/m 18,3 C 25,6 C 0,0 km/h (0 Bft)
19/08/2012 22:30 25,3 C 65 % 1019,5 hPa 0,0 mm 0,0 km/h (0 Bft) O 270 0 min 0 W/m 18,2 C 25,3 C 0,0 km/h (0 Bft)
19/08/2012 22:40 25,1 C 66 % 1019,7 hPa 0,0 mm 0,0 km/h (0 Bft) O-SO 247 0 min 0 W/m 18,3 C 25,1 C 0,0 km/h (0 Bft)
19/08/2012 22:50 24,8 C 66 % 1019,8 hPa 0,0 mm 0,0 km/h (0 Bft) O-SO 247 0 min 0 W/m 18,0 C 24,8 C 0,0 km/h (0 Bft)
19/08/2012 23:00 24,6 C 66 % 1019,8 hPa 0,0 mm 0,0 km/h (0 Bft) O-SO 247 0 min 0 W/m 17,8 C 24,6 C 0,0 km/h (0 Bft)
19/08/2012 23:10 24,3 C 67 % 1019,9 hPa 0,0 mm 0,0 km/h (0 Bft) O-SO 247 0 min 0 W/m 17,8 C 24,3 C 0,0 km/h (0 Bft)
19/08/2012 23:20 24,1 C 68 % 1020,0 hPa 0,0 mm 0,0 km/h (0 Bft) O-SO 247 0 min 0 W/m 17,8 C 24,1 C 0,0 km/h (0 Bft)
19/08/2012 23:30 23,8 C 69 % 1020,1 hPa 0,0 mm 0,0 km/h (0 Bft) O-SO 247 0 min 0 W/m 17,8 C 23,8 C 0,0 km/h (0 Bft)
19/08/2012 23:40 23,6 C 70 % 1020,1 hPa 0,0 mm 0,0 km/h (0 Bft) O-SO 247 0 min 0 W/m 17,8 C 23,6 C 0,0 km/h (0 Bft)
19/08/2012 23:50 23,4 C 70 % 1020,2 hPa 0,0 mm 0,0 km/h (0 Bft) O-SO 247 0 min 0 W/m 17,6 C 23,4 C 0,0 km/h (0 Bft)
_ Min-Heure 06:50 15:30 08:00 - 23:50 - - - - 10:00 06:50 23:50
Minimum _ 19,6 C 30 % 1015,2 hPa - 0,0 km/h (0 Bft) - - - - 14,3 C 19,6 C 0,0 km/h (0 Bft)
_ Max-Heure 16:00 06:50 23:50 23:50 10:10 - - 23:50 23:50 20:30 16:00 16:10
Maximum _ 36,6 C 76 % 1020,2 hPa 0,0 mm 13,7 km/h
SO (3 Bft)
- - 0 min 0 W/m 19,7 C 36,6 C 20,9 km/h
NO (4 Bft)
Moyenne _ 28,2 C 53 % 1016,8 hPa #0,0 mm 3,0 km/h (1 Bft) O-SO - #0 min. 0 W/m 16,7 C 28,2 C 5,2 km/h (1 Bft)
Saint Bonnet de Bellac- Haute Vienne - France